Theta_e
302 301 304 306 307 307 306 302 301 301 301 301 301 301 302 303 303 307 315 312 308 306 305 309 310 311 312 315 318 321 328 328 328 328 327 326 327 326 326 326 326 326 326 326 324
309 308 304 303 305 307 308 307 301 301 301 301 301 301 302 303 304 313 312 308 311 309 311 310 311 311 313 315 317 322 325 326 326 327 327 327 327 326 325 326 326 326 326 325 324
309 309 309 308 305 305 307 308 303 301 302 301 302 302 303 303 314 313 310 310 311 311 313 311 311 312 313 315 316 319 323 324 324 323 324 325 326 325 324 325 325 326 324 323 322
309 309 309 309 309 305 306 307 303 301 302 302 302 303 304 304 317 315 311 311 311 311 313 313 312 312 314 315 316 317 319 320 320 321 320 322 323 322 321 321 320 320 320 319 321
309 309 309 309 310 308 306 306 303 302 302 302 302 305 306 311 311 311 311 310 310 311 312 313 313 312 314 314 314 315 317 316 316 316 317 318 319 319 320 319 316 316 318 319 319
309 308 309 309 309 309 306 304 303 302 302 302 303 307 310 310 309 311 311 310 312 312 312 313 313 313 313 314 314 314 314 315 315 315 315 316 316 316 317 316 316 316 317 317 319
308 307 306 308 309 308 306 303 303 303 303 303 305 308 310 309 311 311 310 313 311 311 311 312 312 312 313 314 313 313 314 314 314 314 315 314 315 317 316 315 315 316 318 318 318
305 304 307 308 309 307 304 306 308 308 307 307 306 308 310 306 310 310 313 312 311 311 311 311 311 312 313 313 313 314 314 314 314 313 313 313 314 316 315 315 316 315 315 317 318
304 307 309 309 309 306 309 310 310 310 311 310 310 312 313 308 312 312 312 310 310 310 310 310 311 313 313 315 315 315 314 315 315 314 315 315 315 316 315 315 315 315 315 315 316
307 309 310 310 307 310 310 310 312 311 310 310 310 315 313 313 313 312 311 310 310 310 311 311 312 315 315 315 315 316 315 314 315 316 315 315 316 316 315 315 315 314 315 315 315
309 310 311 310 308 311 311 311 314 314 314 313 313 313 313 313 311 311 310 310 310 311 312 312 314 315 315 313 313 313 314 314 314 314 314 315 315 316 315 314 315 315 315 315 315
308 310 311 307 311 311 311 313 311 311 315 312 312 312 312 312 312 311 311 311 311 313 311 312 313 313 313 312 312 313 314 314 314 314 313 314 314 315 315 315 314 315 315 315 315
307 310 305 307 311 311 312 311 310 310 315 313 312 312 312 312 312 312 311 311 312 312 312 313 312 311 311 312 312 313 313 313 313 312 313 314 315 315 314 313 313 314 314 315 315
308 309 305 310 312 311 313 311 309 310 317 314 313 312 312 312 313 311 311 311 312 312 312 312 312 311 311 311 312 312 312 311 312 313 314 314 313 315 315 314 314 314 314 314 314
307 307 306 310 311 313 311 310 309 312 319 314 313 311 312 312 311 311 311 311 312 313 312 313 312 312 312 312 312 312 312 312 313 314 314 314 315 315 314 314 314 314 313 313 313
308 309 311 311 311 310 307 308 313 321 319 313 313 313 313 312 312 312 313 311 311 312 313 313 312 312 312 312 312 312 312 313 314 314 314 314 314 314 315 315 314 314 313 313 314
309 310 310 311 313 310 310 314 320 320 315 315 314 313 313 314 314 314 315 315 314 314 315 314 313 312 311 312 313 313 314 315 314 315 314 314 314 314 315 314 315 315 314 314 315
311 311 310 310 311 311 313 317 319 316 316 314 314 313 314 314 315 314 314 315 315 314 314 315 314 313 313 313 313 314 314 314 313 313 314 314 315 317 315 314 313 313 314 314 315
311 312 314 310 310 310 313 317 317 316 314 314 314 314 314 314 313 313 313 313 313 313 315 314 314 313 313 313 313 314 314 313 314 314 316 315 316 316 316 315 315 314 314 314 314
310 314 315 311 310 311 316 315 316 314 312 313 315 313 314 314 313 313 313 312 312 313 313 313 315 314 313 313 313 314 314 314 315 316 316 316 316 316 316 315 315 315 314 314 314
310 314 314 311 311 313 317 315 315 313 312 313 314 314 314 313 313 313 313 312 312 312 312 313 313 313 313 313 313 313 313 313 315 317 318 317 316 316 315 315 315 315 314 314 313
311 314 312 311 314 313 314 313 309 312 311 312 313 313 314 313 313 313 313 313 311 311 312 312 313 314 313 313 313 313 314 314 317 316 316 315 316 316 316 315 314 314 314 314 314
307 312 310 306 315 311 311 311 310 310 311 312 313 313 313 313 313 312 312 311 311 312 312 313 314 315 314 314 314 314 315 315 315 316 318 319 317 315 315 315 315 315 315 314 314
305 310 307 308 307 308 308 309 310 310 311 311 312 311 312 313 312 312 311 311 310 311 310 311 314 313 314 314 315 314 314 314 315 318 317 316 315 315 316 316 316 315 315 314 313
303 308 305 307 306 307 308 308 308 309 310 310 311 311 311 312 311 311 310 310 309 309 310 312 314 312 312 312 312 312 312 312 313 316 317 316 316 315 316 316 315 314 314 313 313
304 303 304 304 305 307 305 308 308 308 308 307 308 308 309 310 310 310 309 309 309 309 311 312 315 312 313 311 311 312 311 312 313 314 316 316 316 316 314 314 314 314 313 313 312
298 301 303 304 305 306 306 306 306 305 305 305 307 307 306 306 305 306 306 307 308 309 310 311 312 314 313 311 312 313 314 315 315 315 315 316 315 315 315 315 314 312 311 311 310
Wind_Speed
17 15 14 13 13 12 12 11 11 11 10 10 10 10 10 11 11 9 6 6 6 8 10 6 5 8 10 14 15 14 12 18 24 21 15 10 12 11 8 9 12 10 10 13 14
17 17 16 15 14 14 13 12 11 10 10 10 10 10 10 10 7 5 5 3 1 3 2 6 9 10 14 16 12 15 15 26 21 19 13 17 19 11 7 16 19 16 17 12 16
19 18 17 17 16 15 14 13 11 9 9 9 9 9 8 8 3 3 3 7 7 6 2 2 7 11 15 14 18 14 21 18 15 14 21 20 21 13 12 16 23 20 14 20 23
22 20 18 17 16 15 15 14 12 9 9 7 7 7 7 2 1 4 7 6 5 5 2 2 5 11 13 12 16 12 17 21 14 14 11 16 20 15 17 21 16 15 15 20 18
21 21 20 18 17 15 14 14 11 9 8 6 5 4 5 5 5 6 7 5 3 2 2 2 4 5 11 11 8 16 11 11 17 17 18 17 18 18 22 14 18 20 14 14 17
21 20 20 19 17 15 14 12 9 8 7 5 4 3 2 8 6 9 7 4 3 1 2 2 2 3 3 7 11 2 12 14 16 18 17 17 20 19 22 11 12 16 15 17 18
22 22 21 19 16 14 13 9 6 5 5 4 3 4 6 6 8 10 7 4 5 4 2 2 2 5 2 5 4 8 12 15 17 19 16 12 18 23 21 15 22 24 17 15 11
23 24 21 17 13 11 8 6 5 4 5 4 4 3 5 5 11 9 5 3 4 5 4 4 5 5 7 1 6 11 8 13 9 7 10 9 16 4 5 5 5 9 9 14 14
24 23 18 12 9 6 5 3 4 2 2 2 1 2 2 5 6 6 6 4 3 4 5 4 5 6 6 10 8 8 10 8 5 7 3 9 10 6 7 10 9 9 8 10 11
25 20 15 8 3 2 2 3 4 3 3 2 2 4 3 8 5 5 5 5 5 4 4 9 8 9 8 9 9 8 9 8 9 7 9 12 14 13 16 16 15 15 15 13 11
23 18 12 3 3 3 3 3 2 2 5 7 2 3 3 2 6 6 5 5 6 7 10 9 10 10 7 2 6 5 7 9 5 6 9 13 15 16 19 21 21 19 19 20 14
20 15 9 4 5 5 6 3 5 5 6 6 7 9 7 3 6 10 7 8 7 7 4 7 12 5 3 5 7 8 9 11 8 6 10 14 18 20 19 20 24 24 24 21 20
17 12 7 6 6 6 5 4 7 7 6 1 2 4 7 8 4 6 13 9 9 8 7 9 6 4 8 8 9 10 10 8 9 11 15 13 21 13 8 9 13 16 18 15 15
13 10 7 9 4 3 2 7 10 6 5 5 4 5 8 5 5 4 9 9 7 9 5 8 6 7 8 7 8 11 5 7 9 11 9 4 6 7 11 7 8 8 9 11 12
12 8 6 4 4 1 7 9 6 2 4 5 5 4 4 9 3 6 4 9 14 10 8 5 10 11 10 10 5 11 2 9 11 13 15 15 8 5 2 9 6 3 3 7 8
11 8 6 4 4 6 7 2 0 6 2 5 3 4 8 9 7 3 6 6 6 12 14 18 13 9 13 6 8 3 11 14 15 10 12 10 7 7 6 7 6 6 7 6 8
6 4 4 4 4 8 3 2 5 5 3 4 5 5 7 8 8 8 9 11 10 11 15 17 16 14 10 12 8 10 10 8 8 9 6 5 7 11 2 4 8 12 12 9 5
4 4 5 6 7 7 2 5 6 1 4 1 6 8 12 7 12 8 11 12 12 12 14 14 13 15 12 15 13 10 9 8 8 8 6 5 7 3 6 4 9 13 13 10 8
6 5 4 7 8 6 7 6 3 2 3 4 9 12 13 8 7 6 12 13 12 8 15 9 15 3 5 7 9 7 9 6 11 15 13 12 14 12 15 7 6 6 4 8 10
7 6 6 6 8 3 6 5 4 3 4 5 10 6 9 8 8 6 7 1 4 6 6 9 12 11 8 7 12 13 10 7 9 8 14 10 12 10 14 3 4 4 7 7 9
2 5 5 7 7 6 5 4 5 5 6 6 9 13 14 13 12 14 6 5 6 8 7 11 10 14 8 14 16 8 12 10 10 7 6 9 5 6 4 6 6 8 6 10 16
4 3 4 6 7 2 5 3 4 9 8 10 8 13 15 14 13 13 11 8 1 6 10 4 5 11 14 8 7 13 15 14 8 10 11 11 21 9 8 6 6 11 20 22 22
10 5 5 4 3 4 4 8 6 9 8 5 7 5 6 10 8 8 9 5 4 9 3 2 6 8 12 9 8 11 13 12 13 10 15 12 14 2 8 14 21 23 22 20 17
7 3 1 4 3 5 6 4 4 4 10 7 10 8 11 13 11 9 6 3 5 6 1 5 12 13 13 14 5 5 8 11 10 7 16 21 30 23 23 24 22 21 22 20 20
7 3 3 4 1 7 3 5 8 5 3 7 5 2 8 12 13 13 13 11 10 10 13 10 17 19 20 21 20 19 19 21 22 24 20 28 28 27 25 25 25 27 24 27 28
6 6 4 8 5 6 0 1 6 6 4 8 10 13 9 14 14 18 17 17 16 12 12 7 6 13 18 17 18 21 22 24 26 27 28 30 31 25 29 22 19 22 26 30 34
6 5 5 1 2 4 2 4 6 8 8 7 10 11 15 16 17 19 19 20 16 11 10 8 5 6 12 13 12 13 22 23 23 23 20 21 23 21 23 20 21 23 29 36 37
Wind_Direction
357 347 342 338 335 333 329 322 313 307 302 298 298 298 301 308 309 304 285 254 267 236 232 240 229 211 208 217 218 221 236 241 237 236 247 234 222 216 225 246 273 279 290 309 326
348 346 342 336 332 327 324 320 309 300 297 294 298 301 307 320 315 258 255 256 192 186 202 217 211 203 207 211 209 216 227 241 246 246 245 237 216 219 252 244 258 273 286 291 312
340 335 334 335 330 324 321 317 307 293 289 290 295 304 314 330 276 147 137 111 106 95 95 198 201 209 224 215 209 225 243 244 250 269 264 264 251 244 239 252 256 278 289 297 302
335 333 330 327 325 321 319 316 304 288 283 280 291 304 313 310 308 167 144 126 102 86 98 169 198 207 221 213 214 247 237 258 241 233 256 259 262 256 247 248 284 280 287 299 299
337 333 331 327 322 318 315 314 305 285 275 276 278 299 321 253 234 186 166 145 115 73 219 215 218 219 223 225 214 237 232 233 245 247 244 259 257 261 263 261 280 279 270 281 290
339 338 334 330 323 317 313 311 303 284 273 266 265 299 309 248 206 175 178 178 197 231 213 202 219 256 244 234 230 233 253 243 244 252 250 252 263 256 257 246 259 259 263 283 283
340 337 333 327 323 316 312 307 303 286 272 264 263 311 264 246 174 184 194 208 232 216 215 218 238 240 202 203 223 243 251 238 240 246 248 262 261 249 261 266 255 261 261 270 280
339 335 332 325 321 319 315 317 306 275 259 262 276 319 260 219 184 191 210 226 215 212 236 250 229 264 243 205 212 237 242 240 178 225 210 222 258 129 195 265 238 291 305 258 249
340 337 334 327 326 330 334 353 350 354 213 253 315 249 162 190 181 196 200 196 188 224 240 228 216 258 209 231 220 202 257 223 166 202 222 228 253 172 237 272 275 261 264 263 248
344 346 339 333 347 24 22 30 35 56 75 63 230 235 195 159 185 193 206 221 220 204 189 207 224 234 219 229 253 210 234 209 254 172 248 250 249 248 256 264 266 267 262 257 259
349 354 351 6 105 72 41 348 321 191 257 272 312 295 174 200 200 195 197 206 210 232 239 203 243 223 228 287 322 267 258 260 247 288 279 271 273 269 261 257 255 254 259 266 267
353 5 28 87 115 90 67 26 26 320 297 253 254 246 243 232 208 209 207 222 210 240 205 217 233 260 217 230 245 247 256 257 279 271 288 276 278 277 263 256 251 251 249 254 261
360 8 28 121 118 102 83 39 345 336 261 128 227 201 190 196 217 220 210 225 238 237 223 280 84 159 206 210 233 236 268 286 284 311 276 280 272 246 225 238 243 245 252 246 249
6 15 61 118 102 101 48 336 336 326 264 130 169 159 190 211 234 207 209 223 220 262 209 250 128 213 218 244 246 266 190 269 278 286 287 343 287 261 233 239 207 241 252 254 256
18 34 103 71 126 7 297 315 327 301 266 129 131 144 175 222 14 160 198 230 255 233 235 230 198 214 247 267 267 270 284 268 284 279 285 260 240 255 167 222 237 176 259 263 254
26 72 80 72 22 329 320 318 158 232 256 165 182 215 214 216 228 245 224 223 267 267 240 262 275 274 270 288 249 283 258 264 256 260 249 234 245 267 188 224 172 284 288 285 282
11 40 11 354 308 333 340 195 235 258 96 181 225 237 264 247 241 244 250 234 248 243 239 236 234 233 248 238 207 235 256 272 240 204 252 117 268 251 190 232 288 304 302 292 304
314 334 347 332 332 339 271 231 253 61 241 66 273 262 259 258 240 252 260 257 216 262 263 268 248 207 200 230 271 218 275 282 285 271 293 239 253 103 106 309 277 285 276 265 254
273 278 295 328 332 336 247 241 295 296 348 288 287 260 259 229 267 233 263 273 286 255 256 283 255 131 251 227 232 223 234 292 285 272 268 258 261 241 217 215 261 287 296 237 257
279 268 257 317 338 308 250 274 274 231 296 259 278 267 273 249 235 241 279 131 250 236 258 280 276 224 240 236 235 249 293 229 214 266 257 250 266 270 178 262 300 302 292 291 287
17 260 247 328 327 240 257 306 287 266 278 271 275 271 278 276 274 274 267 259 251 255 250 281 262 272 209 240 254 190 225 227 288 243 257 283 273 64 309 294 282 304 294 304 292
347 257 280 332 258 229 275 345 344 274 256 268 274 271 274 279 279 271 271 255 81 261 248 267 291 276 269 259 278 270 272 218 226 240 245 274 273 336 301 284 307 278 296 297 293
336 296 316 3 306 317 321 282 268 281 274 264 270 265 314 287 287 269 281 16 268 251 296 303 242 264 242 186 209 234 227 245 245 270 259 264 262 197 237 270 293 301 292 297 292
340 303 357 45 31 326 337 295 284 289 283 287 279 286 276 270 257 268 265 235 234 258 42 292 264 257 266 302 217 256 242 220 236 253 257 251 272 272 283 288 296 290 286 296 295
2 15 325 313 39 332 296 301 303 306 269 287 263 251 305 288 281 277 267 269 245 249 247 248 259 260 261 269 274 276 270 267 258 246 241 267 269 279 283 292 298 291 288 290 289
352 335 294 291 295 292 311 298 314 326 287 297 283 303 295 279 286 282 293 288 283 279 256 234 257 266 264 264 264 264 262 257 256 259 264 269 273 278 280 294 304 298 300 295 295
347 310 281 282 262 288 349 341 317 310 282 269 293 299 291 291 294 290 284 280 270 264 263 285 267 276 269 272 295 268 252 247 251 254 265 277 284 299 295 299 298 301 298 294 293